This is the latest recevied weather packets stored in our database for station/object W7TRD. If no packets are shown the sender has not sent any weather packets the latest 10 day(s).
| Time | Temp. | Humidity | Pressure | Rain* | Wind** | Luminosity | Snow |
|---|---|---|---|---|---|---|---|
| 1788630753 | 16.67° C | 80% | 1018.4 hPa | 0 mm | - | 479 W/m² | - |
| 1788630448 | 16.67° C | 83% | 1018.6 hPa | 0 mm | - | 270 W/m² | - |
| 1788630144 | 16.11° C | 83% | 1018.6 hPa | 0 mm | - | 211 W/m² | - |
| 1788629840 | 17.22° C | 81% | 1018.7 hPa | 0 mm | - | 228 W/m² | - |
| 1788629559 | 17.22° C | 81% | 1018.7 hPa | 0 mm | - | 270 W/m² | - |
| 1788629235 | 16.11° C | 85% | 1018.8 hPa | 0 mm | - | 262 W/m² | - |
| 1788628935 | 15.56° C | 85% | 1018.7 hPa | 0 mm | - | 159 W/m² | - |
| 1788628631 | 15.56° C | 84% | 1018.7 hPa | 0 mm | - | 106 W/m² | - |
| 1788628327 | 16.11° C | 83% | 1018.7 hPa | 0 mm | - | 96 W/m² | - |
| 1788628024 | 16.67° C | 81% | 1018.5 hPa | 0 mm | - | 189 W/m² | - |
| 1788627724 | 17.22° C | 79% | 1018.5 hPa | 0 mm | - | 349 W/m² | - |
| 1788627424 | 18.89° C | 76% | 1018.8 hPa | 0 mm | - | 319 W/m² | - |
| 1788627119 | 18.33° C | 80% | 1018.6 hPa | 0 mm | - | 248 W/m² | - |
| 1788626814 | 17.78° C | 79% | 1018.7 hPa | 0 mm | - | 199 W/m² | - |
| 1788626513 | 17.22° C | 81% | 1018.5 hPa | 0 mm | - | 189 W/m² | - |
| 1788626209 | 16.11° C | 84% | 1018.6 hPa | 0 mm | - | 162 W/m² | - |
| 1788625906 | 15.56° C | 86% | 1018.8 hPa | 0 mm | - | 146 W/m² | - |
| 1788625601 | 14.44° C | 91% | 1018.5 hPa | 0 mm | - | 183 W/m² | - |
| 1788625301 | 14.44° C | 90% | 1018.6 hPa | 0 mm | - | 107 W/m² | - |
| 1788625001 | 14.44° C | 90% | 1018.7 hPa | 0 mm | - | 168 W/m² | - |
| 1788624699 | 14.44° C | 90% | 1018.8 hPa | 0 mm | - | 195 W/m² | - |
| 1788624393 | 14.44° C | 91% | 1018.8 hPa | 0 mm | - | 208 W/m² | - |
| 1788624092 | 13.89° C | 93% | 1018.7 hPa | 0 mm | - | 228 W/m² | - |
| 1788623787 | 13.89° C | 93% | 1018.7 hPa | 0 mm | - | 143 W/m² | - |
| 1788623486 | 13.89° C | 93% | 1018.7 hPa | 0 mm | - | 82 W/m² | - |
* Rain latest hour (hover to see other rain measurements)
** Current wind speed in m/s (hover to see current wind gust speed)